Time,TemperatureF,DewpointF,PressureIn,WindDirection,WindDirectionDegrees,WindSpeedMPH,WindSpeedGustMPH,Humidity,HourlyPrecipIn,Conditions,Clouds,dailyrainin,SolarRadiationWatts/m^2,SoftwareType,DateUTC
2013-08-05 00:07:00,59.6,53.0,30.02,WSW,247,4.0,-999.0,79,-99.99,,,0.00,0,weatherlink.com 1.10,2013-08-05 04:07:00,
2013-08-05 00:21:00,59.2,53.0,30.02,WSW,250,2.0,-999.0,80,-99.99,,,0.00,0,weatherlink.com 1.10,2013-08-05 04:21:00,
2013-08-05 00:52:00,58.4,53.0,30.02,WSW,244,2.0,-999.0,82,-99.99,,,0.00,0,weatherlink.com 1.10,2013-08-05 04:52:00,
2013-08-05 01:07:00,58.0,53.0,30.02,WSW,244,2.0,-999.0,83,-99.99,,,0.00,0,weatherlink.com 1.10,2013-08-05 05:07:00,
2013-08-05 01:22:00,57.8,53.0,30.02,WSW,244,0.0,-999.0,83,-99.99,,,0.00,0,weatherlink.com 1.10,2013-08-05 05:22:00,
2013-08-05 01:37:00,57.4,53.0,30.02,WSW,244,0.0,-999.0,84,-99.99,,,0.00,0,weatherlink.com 1.10,2013-08-05 05:37:00,
2013-08-05 01:51:00,57.1,53.0,30.02,WSW,243,6.0,-999.0,85,-99.99,,,0.00,0,weatherlink.com 1.10,2013-08-05 05:51:00,
2013-08-05 02:07:00,56.9,53.0,30.02,WSW,240,5.0,-999.0,85,-99.99,,,0.00,0,weatherlink.com 1.10,2013-08-05 06:07:00,
2013-08-05 02:22:00,56.7,53.0,30.02,SW,232,3.0,-999.0,86,-99.99,,,0.00,0,weatherlink.com 1.10,2013-08-05 06:22:00,
2013-08-05 02:37:00,56.4,52.0,30.02,SW,236,2.0,-999.0,86,-99.99,,,0.00,0,weatherlink.com 1.10,2013-08-05 06:37:00,
2013-08-05 02:52:00,56.3,53.0,30.02,SW,229,6.0,-999.0,87,-99.99,,,0.00,0,weatherlink.com 1.10,2013-08-05 06:52:00,
2013-08-05 03:07:00,56.1,52.0,30.02,SW,231,4.0,-999.0,87,-99.99,,,0.00,0,weatherlink.com 1.10,2013-08-05 07:07:00,
2013-08-05 03:22:00,55.9,52.0,30.02,SW,232,6.0,-999.0,87,-99.99,,,0.00,0,weatherlink.com 1.10,2013-08-05 07:22:00,
2013-08-05 03:37:00,55.8,52.0,30.03,SW,224,6.0,-999.0,87,-99.99,,,0.00,0,weatherlink.com 1.10,2013-08-05 07:37:00,
2013-08-05 03:52:00,55.5,52.0,30.03,SW,229,2.0,-999.0,88,-99.99,,,0.00,0,weatherlink.com 1.10,2013-08-05 07:52:00,
2013-08-05 04:07:00,55.2,52.0,30.03,SW,230,5.0,-999.0,88,-99.99,,,0.00,0,weatherlink.com 1.10,2013-08-05 08:07:00,
2013-08-05 04:22:00,54.9,52.0,30.03,SW,235,4.0,-999.0,89,-99.99,,,0.00,0,weatherlink.com 1.10,2013-08-05 08:22:00,
2013-08-05 04:37:00,54.7,52.0,30.03,SW,234,4.0,-999.0,89,-99.99,,,0.00,0,weatherlink.com 1.10,2013-08-05 08:37:00,
2013-08-05 04:52:00,54.5,51.0,30.04,SW,234,5.0,-999.0,89,-99.99,,,0.00,0,weatherlink.com 1.10,2013-08-05 08:52:00,
2013-08-05 05:07:00,54.4,52.0,30.04,SW,227,3.0,-999.0,90,-99.99,,,0.00,0,weatherlink.com 1.10,2013-08-05 09:07:00,
2013-08-05 05:22:00,54.2,51.0,30.05,SW,225,2.0,-999.0,90,-99.99,,,0.00,0,weatherlink.com 1.10,2013-08-05 09:22:00,
2013-08-05 05:37:00,54.1,51.0,30.05,SW,225,1.0,-999.0,90,-99.99,,,0.00,0,weatherlink.com 1.10,2013-08-05 09:37:00,
2013-08-05 05:52:00,53.8,51.0,30.05,SW,225,5.0,-999.0,91,-99.99,,,0.00,0,weatherlink.com 1.10,2013-08-05 09:52:00,
2013-08-05 06:07:00,53.7,51.0,30.06,SW,228,2.0,-999.0,91,-99.99,,,0.00,5,weatherlink.com 1.10,2013-08-05 10:07:00,
2013-08-05 06:22:00,53.7,51.0,30.06,SW,219,1.0,-999.0,91,-99.99,,,0.00,11,weatherlink.com 1.10,2013-08-05 10:22:00,
2013-08-05 06:52:00,54.2,52.0,30.07,SSW,207,6.0,-999.0,92,-99.99,,,0.00,21,weatherlink.com 1.10,2013-08-05 10:52:00,
2013-08-05 07:07:00,54.5,52.0,30.07,SW,234,4.0,-999.0,92,-99.99,,,0.00,40,weatherlink.com 1.10,2013-08-05 11:07:00,
2013-08-05 07:22:00,54.9,53.0,30.07,SW,217,3.0,-999.0,92,-99.99,,,0.00,130,weatherlink.com 1.10,2013-08-05 11:22:00,
2013-08-05 07:38:00,55.4,53.0,30.07,WSW,247,5.0,-999.0,91,-99.99,,,0.00,204,weatherlink.com 1.10,2013-08-05 11:38:00,
2013-08-05 08:08:00,58.0,55.0,30.07,SW,228,4.0,-999.0,91,-99.99,,,0.00,299,weatherlink.com 1.10,2013-08-05 12:08:00,
2013-08-05 08:23:00,59.3,56.0,30.07,SW,229,5.0,-999.0,89,-99.99,,,0.00,330,weatherlink.com 1.10,2013-08-05 12:23:00,
2013-08-05 08:38:00,60.9,57.0,30.07,SW,231,4.0,-999.0,88,-99.99,,,0.00,390,weatherlink.com 1.10,2013-08-05 12:38:00,
2013-08-05 08:53:00,62.2,58.0,30.07,West,261,7.0,-999.0,85,-99.99,,,0.00,448,weatherlink.com 1.10,2013-08-05 12:53:00,
2013-08-05 09:23:00,64.9,59.0,30.08,WSW,244,7.0,-999.0,81,-99.99,,,0.00,438,weatherlink.com 1.10,2013-08-05 13:23:00,
2013-08-05 09:38:00,65.6,59.0,30.08,WSW,252,2.0,-999.0,78,-99.99,,,0.00,610,weatherlink.com 1.10,2013-08-05 13:38:00,
2013-08-05 09:53:00,66.2,58.0,30.08,WSW,243,2.0,-999.0,76,-99.99,,,0.00,679,weatherlink.com 1.10,2013-08-05 13:53:00,
2013-08-05 10:08:00,67.0,58.0,30.08,WSW,256,5.0,-999.0,74,-99.99,,,0.00,693,weatherlink.com 1.10,2013-08-05 14:08:00,
2013-08-05 10:38:00,69.5,58.0,30.09,WSW,245,2.0,-999.0,67,-99.99,,,0.00,796,weatherlink.com 1.10,2013-08-05 14:38:00,
2013-08-05 10:53:00,69.9,57.0,30.08,WNW,290,5.0,-999.0,63,-99.99,,,0.00,751,weatherlink.com 1.10,2013-08-05 14:53:00,
2013-08-05 11:08:00,70.5,56.0,30.08,NW,312,8.0,-999.0,60,-99.99,,,0.00,865,weatherlink.com 1.10,2013-08-05 15:08:00,
2013-08-05 11:23:00,71.1,56.0,30.08,SW,232,2.0,-999.0,60,-99.99,,,0.00,821,weatherlink.com 1.10,2013-08-05 15:23:00,
2013-08-05 11:38:00,71.0,55.0,30.08,SW,225,4.0,-999.0,58,-99.99,,,0.00,1030,weatherlink.com 1.10,2013-08-05 15:38:00,
2013-08-05 11:54:00,71.2,54.0,30.07,West,261,1.0,-999.0,54,-99.99,,,0.00,353,weatherlink.com 1.10,2013-08-05 15:54:00,
2013-08-05 12:39:00,71.5,54.0,30.06,West,269,6.0,-999.0,55,-99.99,,,0.00,1120,weatherlink.com 1.10,2013-08-05 16:39:00,
2013-08-05 12:54:00,72.4,54.0,30.05,WNW,301,7.0,-999.0,53,-99.99,,,0.00,1185,weatherlink.com 1.10,2013-08-05 16:54:00,
2013-08-05 13:09:00,71.8,54.0,30.05,WNW,298,8.0,-999.0,54,-99.99,,,0.00,229,weatherlink.com 1.10,2013-08-05 17:09:00,
2013-08-05 13:24:00,71.0,53.0,30.05,West,265,5.0,-999.0,54,-99.99,,,0.00,1044,weatherlink.com 1.10,2013-08-05 17:24:00,
2013-08-05 13:39:00,74.0,54.0,30.04,WNW,292,0.0,-999.0,49,-99.99,,,0.00,1106,weatherlink.com 1.10,2013-08-05 17:39:00,
2013-08-05 14:09:00,73.8,55.0,30.04,NNE,27,6.0,-999.0,52,-99.99,,,0.00,1071,weatherlink.com 1.10,2013-08-05 18:09:00,
2013-08-05 14:24:00,73.8,54.0,30.03,North,355,0.0,-999.0,51,-99.99,,,0.00,195,weatherlink.com 1.10,2013-08-05 18:24:00,
2013-08-05 14:39:00,73.1,55.0,30.03,North,355,5.0,-999.0,53,-99.99,,,0.00,327,weatherlink.com 1.10,2013-08-05 18:39:00,
2013-08-05 14:54:00,73.4,54.0,30.03,WNW,283,8.0,-999.0,50,-99.99,,,0.00,244,weatherlink.com 1.10,2013-08-05 18:54:00,
2013-08-05 15:39:00,74.8,54.0,30.03,NNW,333,0.0,-999.0,48,-99.99,,,0.00,928,weatherlink.com 1.10,2013-08-05 19:39:00,
2013-08-05 15:54:00,75.6,53.0,30.03,NE,43,1.0,-999.0,46,-99.99,,,0.00,821,weatherlink.com 1.10,2013-08-05 19:54:00,
2013-08-05 16:09:00,75.5,54.0,30.02,NNW,327,4.0,-999.0,48,-99.99,,,0.00,519,weatherlink.com 1.10,2013-08-05 20:09:00,
2013-08-05 16:24:00,74.1,54.0,30.02,NE,54,5.0,-999.0,49,-99.99,,,0.00,751,weatherlink.com 1.10,2013-08-05 20:24:00,
2013-08-05 16:54:00,72.5,53.0,30.01,NNW,345,1.0,-999.0,50,-99.99,,,0.00,318,weatherlink.com 1.10,2013-08-05 20:54:00,
2013-08-05 17:09:00,72.0,54.0,30.02,NE,37,0.0,-999.0,53,-99.99,,,0.00,186,weatherlink.com 1.10,2013-08-05 21:09:00,
2013-08-05 17:24:00,72.3,55.0,30.02,NE,44,3.0,-999.0,54,-99.99,,,0.00,387,weatherlink.com 1.10,2013-08-05 21:24:00,
2013-08-05 17:39:00,72.3,54.0,30.02,North,350,2.0,-999.0,53,-99.99,,,0.00,144,weatherlink.com 1.10,2013-08-05 21:39:00,
2013-08-05 17:54:00,72.2,55.0,30.02,North,350,4.0,-999.0,55,-99.99,,,0.00,406,weatherlink.com 1.10,2013-08-05 21:54:00,
2013-08-05 18:09:00,72.2,55.0,30.01,North,350,0.0,-999.0,56,-99.99,,,0.00,91,weatherlink.com 1.10,2013-08-05 22:09:00,
2013-08-05 18:39:00,71.5,55.0,30.01,North,355,4.0,-999.0,57,-99.99,,,0.00,118,weatherlink.com 1.10,2013-08-05 22:39:00,
2013-08-05 18:54:00,70.6,55.0,30.01,North,355,2.0,-999.0,58,-99.99,,,0.00,171,weatherlink.com 1.10,2013-08-05 22:54:00,
2013-08-05 19:09:00,70.1,55.0,30.01,North,355,2.0,-999.0,59,-99.99,,,0.00,100,weatherlink.com 1.10,2013-08-05 23:09:00,
2013-08-05 19:24:00,70.0,55.0,30.02,North,355,1.0,-999.0,60,-99.99,,,0.00,132,weatherlink.com 1.10,2013-08-05 23:24:00,
2013-08-05 20:09:00,68.7,56.0,30.01,North,355,0.0,-999.0,64,-99.99,,,0.00,25,weatherlink.com 1.10,2013-08-06 00:09:00,
2013-08-05 20:24:00,67.4,56.0,30.01,North,355,0.0,-999.0,68,-99.99,,,0.00,9,weatherlink.com 1.10,2013-08-06 00:24:00,
2013-08-05 20:39:00,66.1,56.0,30.01,North,355,0.0,-999.0,71,-99.99,,,0.00,0,weatherlink.com 1.10,2013-08-06 00:39:00,
2013-08-05 20:54:00,64.7,57.0,30.01,North,355,0.0,-999.0,75,-99.99,,,0.00,0,weatherlink.com 1.10,2013-08-06 00:54:00,
2013-08-05 21:09:00,63.7,56.0,30.02,North,355,0.0,-999.0,76,-99.99,,,0.00,0,weatherlink.com 1.10,2013-08-06 01:09:00,
2013-08-05 21:24:00,62.6,56.0,30.02,North,355,0.0,-999.0,79,-99.99,,,0.00,0,weatherlink.com 1.10,2013-08-06 01:24:00,
2013-08-05 21:39:00,61.8,56.0,30.02,North,355,0.0,-999.0,80,-99.99,,,0.00,0,weatherlink.com 1.10,2013-08-06 01:39:00,
2013-08-05 22:24:00,60.4,55.0,30.01,North,355,0.0,-999.0,83,-99.99,,,0.00,0,weatherlink.com 1.10,2013-08-06 02:24:00,
2013-08-05 22:54:00,59.3,55.0,30.01,North,355,0.0,-999.0,85,-99.99,,,0.00,0,weatherlink.com 1.10,2013-08-06 02:54:00,
2013-08-05 23:09:00,58.7,55.0,30.01,North,355,0.0,-999.0,86,-99.99,,,0.00,0,weatherlink.com 1.10,2013-08-06 03:09:00,
2013-08-05 23:24:00,58.3,55.0,30.01,North,355,0.0,-999.0,87,-99.99,,,0.00,0,weatherlink.com 1.10,2013-08-06 03:24:00,
2013-08-05 23:39:00,58.0,55.0,30.01,North,355,0.0,-999.0,88,-99.99,,,0.00,0,weatherlink.com 1.10,2013-08-06 03:39:00,
2013-08-05 23:54:00,57.7,54.0,30.01,North,355,0.0,-999.0,88,-99.99,,,0.00,0,weatherlink.com 1.10,2013-08-06 03:54:00,